Regional Weather Roundup
Issued by NWS

Home | Current Version | Previous Version | Text Only | Print | Product List | Glossary On
Versions: 1 2 3 4 5 6 7 8 9 10 11 12 13 14 15 16 17 18 19 20 21 22 23 24 25 26 27 28 29 30 31 32 33 34 35 36 37 38 39 40 41 42 43 44 45 46 47 48 49 50
000
ASUS46 KSEW 010910
RWRWA

WASHINGTON REGIONAL WEATHER ROUNDUP
NATIONAL WEATHER SERVICE SEATTLE WA
200 AM PDT SAT AUG 01 2015

NOTE:"FAIR" INDICATES FEW OR NO CLOUDS BELOW 12,000 FEET WITH NO
SIGNIFICANT WEATHER AND/OR OBSTRUCTIONS TO VISIBILITY.

WAZ505-507>509-011000-
SEATTLE, TACOMA, EVERETT, AND VICINITY

CITY           SKY/WX    TMP DP  RH WIND       PRES   REMARKS
EVERETT        CLEAR     68  40  35 N5        30.02S
BOEING FIELD   CLEAR     73  42  32 CALM      29.99S
RENTON         CLEAR     69  48  47 NW3       29.98S
SEATAC AIRPORT CLEAR     70  39  32 N5        30.00F
JBLM-MCCHORD   CLEAR     60  47  62 S1        30.00S
PUYALLUP       FAIR      57  48  72 CALM      30.01R
BREMERTON      CLEAR     55  45  67 CALM      30.03F
JBLM-FT LEWIS  CLEAR     64  45  50 VRB1      29.99S
TACOMA NARROWS CLEAR     65  44  46 W3        30.01R
$$

WAZ001-503-506-510-514-515-011000-
NORTH INTERIOR

CITY           SKY/WX    TMP DP  RH WIND       PRES   REMARKS
BELLINGHAM     CLEAR     60  56  86 CALM      29.99S
FRIDAY HARBOR    N/A     50  48  93 CALM      30.01R
EASTSOUND      CLEAR     57  54  88 CALM      29.98S
PORT ANGELES   CLEAR     56  51  84 CALM      30.02R
PORT TOWNSEND  CLOUDY    50  46  87 CALM      30.00S
NAS WHIDBEY    PTCLDY    53  50  89 CALM      30.04R
ARLINGTON      CLEAR     55  43  62 CALM      30.01F
BURLINGTON     CLOUDY    55  50  82 CALM      30.00S
$$

WAZ020-022-039-040-504-511-512-011000-
SOUTHWEST INTERIOR

CITY           SKY/WX    TMP DP  RH WIND       PRES   REMARKS
SHELTON        CLEAR     58  52  80 W5        29.99R
OLYMPIA        CLEAR     58  43  57 CALM      30.00S
CHEHALIS       FAIR      55  50  82 CALM      30.00S
KELSO          CLEAR     64  52  63 N5        30.03S
VANCOUVER      CLEAR     72  41  32 VRB3      29.96S
SCAPPOOSE, OR  CLEAR     72  36  26 NW8       29.95S
PORTLAND, OR   CLEAR     72  46  39 NW3       29.96S
$$

WAZ021-516-517-011000-
WASHINGTON COAST

CITY           SKY/WX    TMP DP  RH WIND       PRES   REMARKS
FORKS          FOG       56  56 100 NW5       30.04S VSB 1/2
HOQUIAM        CLOUDY    57  55  93 CALM      30.03S
ASTORIA, OR    MOCLDY    54  53  97 S3        30.02F
$$

WAZ019-023-024-040-518-519-011000-
CASCADE MOUNTAINS AND COLUMBIA GORGE

CITY           SKY/WX    TMP DP  RH WIND       PRES   REMARKS
TROUTDALE, OR  CLEAR     66  52  60 CALM      29.95S
THE DALLES, OR CLEAR     79  48  33 NW14      29.88S
$$

WAZ026-027-041>044-520-521-011000-
EAST SLOPES

CITY           SKY/WX    TMP DP  RH WIND       PRES   REMARKS
OMAK           MOCLDY    68  29  23 NW5       29.91S
WENATCHEE      CLEAR     80  35  19 NW12      29.91F
ELLENSBURG     CLEAR     76  37  24 NW16      29.96F
YAKIMA         CLEAR     72  43  35 VRB6      29.92S
$$

WAZ028-034-035-011000-
COLUMBIA BASIN

CITY           SKY/WX    TMP DP  RH WIND       PRES   REMARKS
EPHRATA        CLEAR     83  24  11 NW16      29.88S
MOSES LAKE     CLEAR     68  49  50 SE5       29.89S
PASCO          CLEAR     71  54  54 CALM      29.86R
HERMISTON, OR  CLEAR     69  46  43 E3        29.86S
$$

WAZ036>038-011000-
NORTHEAST WASHINGTON

CITY           SKY/WX    TMP DP  RH WIND       PRES   REMARKS
SPOKANE GEIGER PTCLDY    73  22  14 SE7       29.96F
SPOKANE FELTS  CLEAR     63  38  39 NE5       29.96S
FAIRCHILD AFB  CLEAR     70  28  20 SW7       29.97S
COEURDALENE,ID CLEAR     57  39  51 CALM      29.96F
DEER PARK      CLEAR     55  30  38 CALM      29.95F
$$

WAZ029>033-011000-
SOUTHEAST WASHINGTON

CITY           SKY/WX    TMP DP  RH WIND       PRES   REMARKS
PULLMAN        CLEAR     58  35  42 CALM      30.01F
LEWISTON, ID   CLEAR     75  34  22 SE5       29.92S
WALLA WALLA    CLEAR     78  37  22 SE7       29.91R
PENDLETON, OR  NOT AVBL
$$


USA.gov is the U.S. government's official web portal to all federal, state and local government web resources and services.